Regional Weather Roundup
Issued by NWS

Home | Current Version | Previous Version | Text Only | Print | Product List | Glossary On
Versions: 1 2 3 4 5 6 7 8 9 10 11 12 13 14 15 16 17 18 19 20 21 22 23 24 25 26 27 28 29 30 31 32 33 34 35 36 37 38 39 40 41 42 43 44 45 46 47 48 49 50
000
ASUS42 KFFC 191203
RWRGA
WEATHER ROUNDUP FOR GEORGIA
NATIONAL WEATHER SERVICE PEACHTREE CITY GA
800 AM EDT FRI SEP 19 2014

NOTE: "FAIR" INDICATES FEW OR NO CLOUDS BELOW 12,000 FEET WITH NO
SIGNIFICANT WEATHER AND/OR OBSTRUCTIONS TO VISIBILITY.

* = USE WITH CAUTION. THE STATIONS MARKED WITH AN ASTERISK MAY NOT
REPORT WEATHER SUCH AS PRECIPITATION, FOG, OR THUNDER AND ARE NOT
QUALITY CONTROLLED BY NWS.

THE REMARK "TC" DENOTES TEMPERATURE READING IN DEGREES CELSIUS.

GAZ001>058-191300-
NORTH GEORGIA

CITY           SKY/WX    TMP DP  RH WIND       PRES   REMARKS
ATLANTA        MOCLDY    69  65  86 E8        30.06R
6HR MIN TEMP:  69; 6HR MAX TEMP:  73;

ATHENS         MOCLDY    66  65  96 NE6       30.07R
6HR MIN TEMP:  65; 6HR MAX TEMP:  67;

CHAMBLEE       PTCLDY    67  64  90 E3        30.07R FOG
6HR MIN TEMP:  67; 6HR MAX TEMP:  69;

PEACHTREE CITY CLOUDY    67  66  97 CALM      30.06R FOG
6HR MIN TEMP:  66; 6HR MAX TEMP:  68;

ROME           CLEAR     62  60  93 CALM      30.06R
6HR MIN TEMP:  60; 6HR MAX TEMP:  65;

WEST ATLANTA   PTCLDY    66  64  93 CALM      30.06R
6HR MIN TEMP:  65; 6HR MAX TEMP:  68;

GAINESVILLE    CLOUDY    67  63  87 E9        30.11R
6HR MIN TEMP:  66; 6HR MAX TEMP:  69;

CARTERSVILLE   CLEAR     62  60  93 CALM      30.07R
6HR MIN TEMP:  61; 6HR MAX TEMP:  64;



CITY           SKY/WX    TMP DP  RH WIND       PRES   REMARKS
DALTON*        CLEAR     59  59 100 CALM      30.08R
LAWRENCEVILLE* CLEAR    N/A N/A N/A NE5       30.06R
MARIETTA       PTCLDY    67  65  96 VRB2      30.07R
KENNESAW*      PTCLDY    64  63  94 SE6       30.08R
$$

GAZ059>098-102>109-191300-
CENTRAL GEORGIA

CITY           SKY/WX    TMP DP  RH WIND       PRES   REMARKS
AUGUSTA-BUSH   MOCLDY    67  66  97 CALM      30.05R FOG
6HR MIN TEMP:  65; 6HR MAX TEMP:  68;

AUGUSTA-DANIEL MOCLDY    71  68  90 NE7       30.06R
6HR MIN TEMP:  70; 6HR MAX TEMP:  73;

COLUMBUS       MOCLDY    70  66  87 E3        30.02R
6HR MIN TEMP:  69; 6HR MAX TEMP:  73;

MACON          MOCLDY    65  65 100 CALM      30.03R
6HR MIN TEMP:  63; 6HR MAX TEMP:  65;

ROBINS AFB     MOCLDY    66  65  97 N2        30.03R


CITY           SKY/WX    TMP DP  RH WIND       PRES   REMARKS
LAGRANGE*      MOCLDY    71  70  96 CALM      30.04R
SYLVANIA*      CLOUDY    72  71  98 CALM      30.05R FOG
MILLEDGEVILLE* MOCLDY    70  70 100 CALM      30.04R
$$

GAZ099>101-110>166-191300-
SOUTH GEORGIA

CITY           SKY/WX    TMP DP  RH WIND       PRES   REMARKS
SAVANNAH       CLOUDY    72  69  90 N3        30.03R
6HR MIN TEMP:  71; 6HR MAX TEMP:  74;

VALDOSTA       CLOUDY    71  70  96 CALM      29.98R FOG
6HR MIN TEMP:  69; 6HR MAX TEMP:  72;

ALMA           CLOUDY    72  70  93 E5        30.00R FOG
6HR MIN TEMP:  70; 6HR MAX TEMP:  72;

ST SIMONS      LGT RAIN  73  71  93 CALM      30.00R
6HR MIN TEMP:  73; 6HR MAX TEMP:  78; 6HR PCP:  0.03;

FT STEWART     CLOUDY    70  69  94 NE2       30.01R
ALBANY         MOCLDY    71  68  90 NE5       30.01R
HUNTER AFB     CLOUDY    72  71  94 N3        30.00R
MOODY AFB      FOG       71  70  97 NE3       29.99R VSB 1/4
BRUNSWICK      CLOUDY    77  72  83 CALM      30.02R


CITY           SKY/WX    TMP DP  RH WIND       PRES   REMARKS
BAINBRIDGE*    CLOUDY    73  72  94 CALM      29.98R
MOULTRIE*      MOCLDY    70  70 100 CALM      29.99R FOG
VIDALIA*       CLOUDY    72  70  94 E5        30.03R
WAYCROSS*      CLOUDY    74  74  99 E3        30.00R FOG
DOUGLAS*       MOCLDY    73  72  94 E3        30.02R FOG
$$


USA.gov is the U.S. government's official web portal to all federal, state and local government web resources and services.